Doylestown, PA

2:28 AM EST on February 23, 2018 (GMT -0500)
Doylestown

Weather History for KDYL - March, 2013

Change the Weather History Date:

Thursday, March 14, 2013

  Actual Average (KTTN) Record (KTTN)
Temperature  
Mean Temperature 33 °F -  
Max Temperature 39 °F 45 °F 79 °F (2007)
Min Temperature 27 °F 29 °F 12 °F (1896)
Degree Days  
Heating Degree Days 32    
Moisture  
Dew Point 13 °F    
Average Humidity 46    
Maximum Humidity 72    
Minimum Humidity 30    
Precipitation  
Precipitation 0.00 in - - ()
Sea Level Pressure  
Sea Level Pressure 29.96 in    
Wind  
Wind Speed 13 mph (WNW)    
Max Wind Speed 21 mph    
Max Gust Speed 34 mph    
Visibility 10 miles    
Events      
Averages and records for this station are not official NWS values.
T = Trace of Precipitation, MM = Missing Value Source: NWS Daily Summary

Daily Weather History Graph

Daily Weather History Graph

Search for Another Location

Airport or City:

Trip Planner

Search our weather history database for the weather conditions in past years. The results will help you decide how hot, cold, wet, or windy it might be!

Date:

Astronomy

Mar. 14, 2013 Rise Set
Actual Time 7:13 AM EDT 7:06 PM EDT
Civil Twilight 6:46 AM EDT 7:33 PM EDT
Nautical Twilight 6:14 AM EDT 8:05 PM EDT
Astronomical Twilight 5:42 AM EDT 8:37 PM EDT
Moon 8:25 AM EDT (3/14) 10:21 PM EDT (3/14)
Length of Visible Light 12h 47m
Length of Day
11h 53m
Waxing Crescent, 9% of the Moon is Illuminated
Mar 14
Waxing Crescent
Mar 19
First Quarter
Mar 27
Full
Apr 3
Last Quarter
Apr 10
New

Hourly Weather History & Observations

Time (EDT) Temp. Windchill Dew Point Humidity Pressure Visibility Wind Dir Wind Speed Gust Speed Precip Events Conditions
12:54 AM 32.0 °F 22.5 °F 19.0 °F 59% 29.94 in 10.0 mi West 12.7 mph 21.9 mph N/A   Clear
1:54 AM 30.0 °F 23.2 °F 17.1 °F 59% 29.95 in 10.0 mi West 6.9 mph - N/A   Clear
2:54 AM 30.0 °F 20.0 °F 17.1 °F 59% 29.96 in 10.0 mi WNW 12.7 mph 16.1 mph N/A   Partly Cloudy
3:54 AM 28.9 °F 18.2 °F 14.0 °F 54% 29.95 in 10.0 mi WNW 13.8 mph 19.6 mph N/A   Clear
4:54 AM 28.0 °F 18.6 °F 12.9 °F 53% 29.95 in 10.0 mi WNW 10.4 mph 18.4 mph N/A   Clear
5:54 AM 28.0 °F 16.5 °F 15.1 °F 58% 29.96 in 10.0 mi WNW 15.0 mph 21.9 mph N/A   Overcast
6:54 AM 27.0 °F 18.7 °F 19.0 °F 72% 29.96 in 10.0 mi West 8.1 mph 17.3 mph N/A   Mostly Cloudy
7:54 AM 28.9 °F 22.8 °F 19.0 °F 67% 29.98 in 10.0 mi West 5.8 mph 16.1 mph N/A   Overcast
8:54 AM 30.0 °F 18.7 °F 15.1 °F 54% 30.00 in 10.0 mi WNW 16.1 mph 31.1 mph N/A   Mostly Cloudy
9:54 AM 30.9 °F 19.4 °F 14.0 °F 50% 30.00 in 10.0 mi WNW 17.3 mph 27.6 mph N/A   Mostly Cloudy
10:54 AM 32.0 °F 20.5 °F 14.0 °F 48% 29.99 in 10.0 mi WNW 18.4 mph 34.5 mph N/A   Overcast
11:54 AM 36.0 °F 25.0 °F 12.9 °F 39% 29.97 in 10.0 mi NW 20.7 mph 31.1 mph N/A   Mostly Cloudy
12:54 PM 37.9 °F 27.9 °F 12.9 °F 36% 29.95 in 10.0 mi WNW 19.6 mph 29.9 mph N/A   Partly Cloudy
1:54 PM 37.9 °F 29.6 °F 12.9 °F 36% 29.93 in 10.0 mi WNW 13.8 mph 27.6 mph N/A   Mostly Cloudy
2:54 PM 37.9 °F 30.5 °F 12.9 °F 36% 29.92 in 10.0 mi West 11.5 mph 26.5 mph N/A   Overcast
3:54 PM 39.9 °F 31.8 °F 12.9 °F 33% 29.91 in 10.0 mi NW 15.0 mph 26.5 mph N/A   Mostly Cloudy
4:54 PM 39.0 °F 29.3 °F 12.0 °F 33% 29.91 in 10.0 mi NW 19.6 mph 32.2 mph N/A   Scattered Clouds
5:54 PM 37.9 °F 28.9 °F 10.0 °F 32% 29.92 in 10.0 mi WNW 16.1 mph 29.9 mph N/A   Clear
6:54 PM 37.0 °F 27.7 °F 8.1 °F 30% 29.93 in 10.0 mi WNW 16.1 mph 31.1 mph N/A   Clear
7:54 PM 35.1 °F 25.5 °F 10.0 °F 35% 29.96 in 10.0 mi WNW 15.0 mph 23.0 mph N/A   Clear
8:54 PM 35.1 °F 26.9 °F 8.1 °F 33% 29.97 in 10.0 mi NW 11.5 mph 24.2 mph N/A   Clear
9:54 PM 33.1 °F 24.9 °F 9.0 °F 37% 29.99 in 10.0 mi WNW 10.4 mph 20.7 mph N/A   Clear
10:54 PM 32.0 °F 23.6 °F 9.0 °F 38% 30.00 in 10.0 mi NW 10.4 mph 19.6 mph N/A   Clear
11:54 PM 30.9 °F 21.7 °F 10.0 °F 42% 30.01 in 10.0 mi WNW 11.5 mph - N/A   Clear